Torna al catalogo

STARLINK-31431

AttivoComunicazioniVLEO
NORAD 59002·PAYLOAD·🇺🇸 United States

Lanciato Feb 23, 2024 da Vandenberg Space Force Base

Loading…

Prossimi Passaggi (prossime 24 ore)

TLE

AggiornatoSource: CelesTrak SupGP

Epoca: Sep 14, 2026, 21:28 UTC

1 59002C 24036E   26257.89493056  .00042681  00000+0  13730-2 0  2570
2 59002  53.1566 278.9626 0001065  88.1104   0.0528 15.31668879    18

Traccia STARLINK-31431 in tempo reale con AllMySat

Download on the App Store